Wind_Speed
23 22 17 12 10 13 15 15 14 13 10 7 6 3 3 3 4 7 8 10 12 14 14 18 22 23 20 15 11 8 9 10 10 23 21 15 15 12 9 16 20 21 24
26 23 18 15 16 18 16 15 14 14 12 9 6 6 9 10 12 14 13 13 15 18 20 21 25 24 17 15 17 19 22 24 23 28 18 25 25 29 27 29 25 25 25
26 25 23 21 21 20 18 18 18 17 13 8 6 9 11 13 15 14 13 16 18 21 23 26 27 24 23 26 24 27 33 37 40 44 35 36 41 36 34 35 38 34 31
25 25 23 23 23 22 21 21 20 15 11 9 11 14 16 18 18 18 19 19 21 24 28 31 31 33 32 29 31 31 35 41 49 51 53 53 47 39 42 43 43 41 41
26 26 26 26 26 25 23 21 18 16 15 13 17 20 22 23 20 22 23 23 24 23 25 26 32 36 36 38 39 44 47 47 49 47 42 46 48 45 42 43 48 48 44
31 31 30 30 30 29 26 24 22 21 21 21 22 22 22 25 24 25 25 25 22 20 26 33 42 38 34 39 44 46 48 46 45 49 49 48 50 51 48 43 44 48 46
35 33 34 33 31 29 28 28 26 25 27 26 27 28 29 32 31 30 31 29 23 17 22 27 36 42 41 49 49 49 46 49 46 48 50 47 51 54 55 54 46 44 41
40 38 36 36 36 34 34 35 32 31 32 32 32 30 32 35 37 35 33 35 26 25 33 33 39 43 55 60 64 60 60 58 60 56 58 59 60 53 54 53 49 50 46
50 46 43 42 41 38 39 40 39 37 36 37 36 35 34 36 38 38 37 36 31 39 36 39 43 51 59 63 67 66 66 67 63 64 65 67 65 57 52 58 56 52 54
57 54 50 47 44 44 45 46 44 42 42 39 39 37 38 42 43 42 40 37 30 35 46 48 61 61 60 68 67 72 74 72 71 72 74 72 72 67 65 67 61 60 57
60 58 55 52 50 50 49 49 50 47 48 43 41 41 45 47 45 44 44 39 41 43 48 56 61 62 68 72 70 71 71 73 72 76 76 73 71 74 82 81 73 72 69
66 59 56 55 53 51 51 51 51 50 50 48 48 51 52 52 48 44 44 38 34 30 36 49 76 84 70 70 62 69 67 69 72 76 83 91 93 98 96 88 85 78 77
72 66 60 57 56 60 59 57 54 55 53 52 54 55 54 51 48 47 49 39 32 37 45 40 43 70 57 72 62 67 74 78 80 85 88 90 97 95 94 94 92 87 83
77 71 67 65 62 60 60 61 57 56 54 54 55 55 55 55 56 56 54 48 37 44 54 61 62 80 62 68 73 81 89 97 100 103 97 101 97 95 94 95 103 92 93
84 81 78 74 70 68 66 65 64 63 62 62 61 61 63 64 64 65 63 65 58 61 62 63 72 80 81 90 97 104 104 103 108 108 106 103 100 99 99 100 100 95 93
89 85 85 82 78 76 75 74 74 72 71 70 69 68 70 68 70 71 71 71 70 72 77 82 84 89 93 99 102 105 107 106 103 101 95 91 89 87 87 89 92 94 93
97 90 89 88 84 83 82 80 78 77 78 78 78 77 78 76 77 78 78 81 78 79 82 87 91 96 99 101 102 102 99 94 89 85 81 83 86 88 91 89 89 94 94
94 100 96 95 93 91 87 84 84 85 85 84 85 85 84 85 81 74 78 86 89 94 100 101 95 97 99 96 91 86 81 79 81 79 79 83 88 92 92 91 94 97 97
79 82 88 98 100 97 96 93 91 90 87 86 84 84 85 86 91 92 95 99 99 101 97 99 91 82 79 78 78 78 79 82 85 85 86 88 89 91 91 92 97 99 99
75 75 74 73 74 83 95 102 100 99 96 95 97 97 100 102 103 100 93 88 80 71 69 69 71 72 74 75 79 82 83 85 87 87 87 91 94 96 99 100 102 105 108
66 68 67 64 65 66 66 66 69 65 63 66 69 75 74 74 72 71 69 63 60 61 65 67 72 74 77 79 81 80 81 85 91 93 95 96 99 103 107 109 110 113 115
55 58 58 57 53 48 46 47 49 50 49 46 49 51 51 55 59 58 58 59 59 62 74 71 74 74 78 81 83 86 89 94 99 101 102 104 106 111 115 118 121 122 125
46 45 46 44 38 37 40 39 42 47 46 45 48 49 47 54 55 55 59 64 69 76 84 90 86 85 87 88 93 97 100 104 108 108 109 111 115 121 123 126 130 129 117
40 41 41 42 45 48 50 48 49 50 52 52 50 54 59 59 57 57 67 71 83 88 94 94 89 87 91 94 100 105 107 110 114 116 119 121 124 126 118 101 91 86 81
33 36 40 43 45 48 51 52 53 52 56 54 56 59 62 67 74 72 75 75 80 90 92 88 91 93 96 101 106 110 115 120 124 126 125 116 100 88 81 74 68 64 61
32 36 40 44 46 48 49 51 52 53 57 60 59 61 65 67 68 70 70 75 78 82 87 90 95 99 103 106 113 119 124 126 124 109 94 86 78 71 65 61 56 54 53
Wind_Direction
242 244 230 221 212 207 193 195 203 213 214 201 203 182 251 288 305 305 282 276 281 286 291 296 308 314 314 315 306 317 301 317 317 322 318 312 311 311 315 320 320 322 325
238 231 209 201 200 200 200 206 212 218 213 202 211 242 268 278 281 284 282 282 284 294 301 306 312 316 306 295 270 274 283 296 302 316 312 307 311 303 291 307 304 302 303
237 224 206 204 205 207 210 220 222 221 220 221 249 256 260 269 273 278 289 295 295 302 309 318 324 307 298 301 287 281 286 296 296 304 302 306 310 305 296 294 297 296 295
227 224 218 217 218 221 224 223 228 232 241 256 277 254 266 278 281 288 296 297 302 311 318 320 313 311 305 297 299 294 298 302 304 306 305 305 305 295 292 288 290 286 296
229 221 217 218 224 230 227 222 229 243 255 257 253 260 270 279 289 291 296 299 308 316 324 326 323 312 308 302 301 299 301 301 302 302 310 313 313 307 299 287 289 288 286
233 227 228 230 230 229 228 229 233 240 247 255 257 257 264 273 281 289 295 299 308 321 330 325 324 320 312 312 306 301 303 302 305 307 310 314 308 306 310 312 294 282 281
240 230 226 227 226 229 233 237 242 248 253 257 254 259 263 272 278 286 293 297 308 306 314 319 319 296 309 312 308 304 302 304 300 300 301 305 313 313 316 317 304 280 277
241 238 235 231 227 229 234 241 247 250 254 258 259 263 265 269 275 281 291 293 304 307 318 310 295 301 298 303 303 298 301 303 307 308 303 302 307 309 307 308 307 291 283
246 243 240 238 238 236 237 242 249 250 254 260 262 264 271 270 277 284 287 292 307 312 310 311 311 307 304 306 306 302 302 303 306 305 302 303 300 301 300 298 301 298 292
240 244 246 246 245 243 244 248 252 257 258 257 259 263 266 269 278 287 293 298 310 316 315 307 314 316 311 305 302 301 300 301 301 300 296 298 302 299 305 306 303 301 307
238 241 241 241 246 247 246 249 253 255 258 260 266 269 269 271 276 283 287 295 305 309 309 311 315 308 302 294 294 295 294 300 299 298 300 301 298 297 300 302 303 301 302
237 240 242 242 243 242 244 247 254 256 257 263 267 269 273 278 281 281 285 297 315 314 304 300 307 289 290 292 296 293 291 293 293 290 292 294 296 300 301 303 304 308 306
240 243 244 243 241 242 245 250 255 258 262 263 268 269 270 276 283 287 289 291 296 308 308 290 247 259 276 271 287 288 292 295 295 295 294 294 295 297 300 302 302 309 309
238 239 242 248 247 246 245 247 251 259 262 263 266 269 273 278 281 284 285 286 283 277 283 276 265 257 269 270 279 282 284 289 292 293 295 296 294 296 297 297 300 304 307
239 240 241 242 246 249 251 253 256 260 261 265 268 270 278 282 284 284 284 282 277 274 276 270 260 268 273 275 279 289 292 295 294 293 295 296 297 297 297 296 297 299 305
240 242 241 242 244 248 251 253 257 260 262 266 269 272 275 277 278 279 279 279 281 280 279 279 276 276 275 277 283 288 287 288 291 297 298 301 301 299 297 298 297 298 301
241 241 246 248 248 250 251 253 256 259 261 263 266 269 273 276 277 279 278 281 279 278 279 277 282 282 283 282 280 282 288 292 294 296 297 296 297 299 296 297 297 298 301
240 242 243 245 249 252 253 254 256 259 262 264 267 269 271 273 275 276 275 277 282 284 282 282 284 283 282 287 291 292 295 296 297 298 298 297 297 296 296 297 298 299 302
238 241 245 247 249 252 254 255 258 260 262 264 266 269 272 274 275 277 280 282 282 280 284 285 287 289 289 290 293 294 295 296 296 295 295 295 296 297 296 296 298 299 300
240 241 245 248 251 254 256 257 257 259 261 265 266 267 269 272 273 275 276 277 281 283 285 289 289 288 288 288 290 291 291 293 293 293 295 294 296 297 297 298 298 298 298
241 244 248 251 254 257 259 260 262 263 263 262 262 264 263 264 264 266 268 273 277 279 284 289 290 288 287 288 289 290 292 294 294 296 297 297 296 297 298 297 297 299 299
241 244 247 252 257 260 260 259 259 256 256 257 257 258 260 260 262 266 274 277 279 282 293 291 284 285 286 289 291 293 294 295 295 295 297 299 298 298 298 298 298 299 299
239 243 246 249 249 248 249 250 247 249 242 259 257 256 262 266 267 270 272 277 276 281 285 291 291 290 293 295 294 295 295 295 297 298 297 297 299 298 298 298 295 294 295
239 245 250 252 247 246 246 245 247 251 250 252 255 260 263 258 263 271 279 279 280 280 282 287 291 293 293 294 294 295 296 295 296 298 298 299 298 297 296 295 293 293 294
238 241 244 247 250 253 255 254 251 253 250 253 261 265 264 265 266 269 273 272 270 275 284 290 290 292 292 293 295 296 297 299 298 300 300 300 300 299 296 295 293 293 291
244 248 252 255 259 262 265 267 267 266 261 259 266 268 267 268 273 277 276 277 282 284 285 288 290 292 295 296 297 298 298 299 300 304 304 304 302 301 299 297 295 293 290
Height
10946 10947 10948 10948 10950 10952 10954 10956 10957 10958 10960 10961 10962 10963 10963 10961 10960 10961 10960 10960 10960 10960 10960 10958 10956 10954 10953 10952 10951 10949 10947 10947 10946 10945 10944 10941 10937 10933 10930 10928 10926 10923 10920
10940 10942 10943 10945 10947 10949 10952 10955 10955 10957 10959 10959 10960 10961 10960 10959 10958 10958 10958 10958 10957 10956 10955 10955 10953 10951 10951 10950 10948 10945 10942 10941 10940 10939 10938 10936 10933 10930 10927 10925 10922 10920 10918
10936 10937 10939 10941 10944 10946 10948 10951 10952 10953 10955 10956 10957 10957 10956 10955 10955 10955 10956 10955 10953 10952 10951 10950 10947 10947 10945 10944 10943 10943 10940 10939 10936 10931 10930 10927 10924 10922 10918 10914 10911 10910 10908
10931 10934 10937 10939 10941 10942 10944 10946 10947 10948 10951 10953 10954 10953 10952 10951 10951 10951 10951 10951 10950 10950 10950 10949 10944 10943 10941 10937 10936 10934 10932 10930 10927 10925 10921 10918 10914 10909 10906 10903 10901 10897 10897
10927 10929 10932 10935 10937 10939 10941 10941 10942 10943 10945 10947 10949 10948 10947 10945 10947 10946 10947 10947 10947 10948 10946 10943 10940 10938 10934 10931 10927 10924 10921 10919 10915 10913 10911 10909 10906 10899 10894 10890 10888 10886 10885
10920 10924 10927 10930 10931 10933 10935 10936 10937 10938 10939 10941 10943 10942 10942 10940 10942 10941 10941 10941 10942 10941 10938 10935 10933 10931 10927 10923 10917 10913 10910 10908 10905 10902 10899 10896 10894 10893 10885 10880 10875 10873 10873
10913 10916 10918 10921 10925 10928 10929 10930 10932 10933 10933 10935 10937 10937 10937 10935 10936 10936 10935 10934 10934 10932 10930 10928 10927 10923 10918 10912 10907 10903 10900 10896 10894 10890 10886 10883 10880 10879 10873 10870 10864 10861 10859
10905 10908 10912 10914 10916 10919 10920 10921 10924 10926 10927 10928 10929 10930 10931 10929 10928 10929 10929 10925 10926 10928 10927 10921 10918 10913 10909 10903 10897 10891 10888 10881 10878 10874 10872 10871 10870 10868 10865 10862 10856 10851 10848
10891 10896 10901 10904 10906 10909 10910 10911 10913 10917 10919 10920 10922 10923 10922 10920 10920 10920 10920 10920 10923 10920 10919 10917 10915 10909 10902 10892 10883 10877 10873 10870 10868 10864 10859 10856 10854 10852 10850 10848 10846 10842 10835
10880 10883 10889 10893 10898 10901 10901 10902 10905 10907 10908 10911 10912 10914 10915 10914 10911 10910 10911 10911 10913 10915 10914 10909 10903 10896 10890 10881 10873 10868 10864 10857 10850 10845 10842 10841 10840 10839 10837 10834 10829 10824 10820
10864 10871 10876 10881 10885 10888 10891 10894 10895 10896 10897 10900 10904 10904 10902 10901 10902 10903 10900 10901 10901 10903 10906 10903 10897 10891 10882 10870 10860 10853 10848 10844 10837 10830 10826 10822 10820 10818 10817 10816 10813 10810 10805
10848 10855 10860 10865 10871 10876 10879 10879 10882 10884 10886 10891 10893 10891 10889 10889 10890 10893 10892 10893 10893 10892 10892 10893 10879 10875 10869 10855 10852 10841 10836 10830 10825 10820 10813 10807 10804 10798 10795 10791 10788 10786 10784
10833 10839 10847 10853 10858 10860 10864 10867 10869 10871 10873 10879 10880 10879 10875 10877 10879 10882 10883 10885 10882 10881 10886 10887 10872 10861 10849 10842 10830 10824 10820 10816 10810 10805 10795 10791 10784 10780 10773 10769 10765 10762 10761
10817 10825 10830 10834 10840 10846 10850 10852 10855 10857 10861 10864 10863 10861 10861 10862 10865 10866 10867 10867 10865 10858 10865 10862 10856 10844 10832 10822 10812 10804 10801 10794 10790 10784 10777 10771 10768 10763 10754 10748 10743 10741 10733
10804 10808 10814 10819 10824 10828 10832 10836 10839 10841 10846 10847 10847 10846 10846 10845 10847 10846 10845 10849 10846 10840 10833 10834 10832 10821 10813 10804 10792 10783 10779 10775 10762 10761 10755 10751 10748 10743 10734 10728 10724 10718 10712
10784 10791 10797 10804 10809 10812 10816 10819 10820 10824 10826 10828 10829 10831 10830 10830 10829 10827 10828 10826 10823 10822 10818 10813 10807 10800 10791 10781 10775 10767 10760 10756 10747 10742 10737 10732 10723 10718 10713 10709 10703 10695 10687
10764 10775 10780 10786 10791 10796 10799 10803 10806 10808 10807 10808 10811 10813 10812 10811 10811 10808 10807 10805 10800 10798 10793 10786 10780 10775 10767 10759 10753 10750 10747 10735 10725 10723 10719 10712 10703 10696 10689 10684 10679 10670 10663
10747 10755 10763 10769 10774 10777 10779 10786 10788 10788 10789 10791 10793 10793 10794 10791 10789 10789 10784 10779 10777 10772 10767 10761 10754 10747 10740 10738 10735 10731 10722 10713 10710 10704 10697 10690 10682 10672 10664 10659 10650 10640 10635
10730 10738 10744 10750 10757 10760 10763 10767 10768 10768 10771 10772 10773 10772 10771 10771 10767 10764 10762 10759 10751 10744 10741 10737 10730 10728 10720 10716 10713 10706 10700 10695 10687 10679 10674 10667 10660 10649 10641 10634 10625 10614 10608
10716 10720 10727 10734 10738 10740 10745 10747 10753 10752 10753 10753 10753 10752 10750 10748 10747 10744 10737 10731 10728 10726 10721 10717 10713 10708 10701 10696 10690 10684 10679 10671 10663 10657 10650 10641 10633 10623 10613 10604 10598 10586 10578
10700 10707 10715 10720 10722 10725 10728 10729 10731 10731 10729 10728 10727 10725 10727 10724 10720 10718 10718 10715 10712 10709 10704 10699 10693 10688 10683 10674 10668 10662 10656 10647 10638 10631 10624 10615 10605 10593 10584 10575 10565 10557 10548
10689 10696 10702 10705 10708 10710 10710 10711 10712 10711 10712 10709 10707 10706 10705 10703 10702 10702 10700 10697 10693 10690 10687 10679 10673 10668 10660 10652 10645 10636 10629 10619 10610 10603 10596 10587 10577 10564 10550 10540 10530 10522 10512
10678 10683 10689 10693 10695 10695 10695 10697 10697 10696 10695 10698 10694 10691 10691 10692 10688 10684 10682 10677 10673 10668 10666 10660 10653 10644 10635 10627 10618 10608 10601 10590 10579 10572 10564 10554 10543 10527 10514 10504 10492 10484 10476
10668 10672 10676 10680 10681 10680 10681 10683 10684 10683 10681 10682 10679 10678 10676 10673 10670 10667 10665 10660 10655 10648 10644 10638 10633 10621 10613 10605 10595 10583 10570 10559 10549 10538 10527 10516 10502 10486 10478 10462 10452 10447 10443
10661 10663 10665 10666 10668 10667 10667 10668 10670 10670 10668 10667 10666 10664 10662 10660 10657 10653 10648 10643 10638 10633 10626 10617 10606 10598 10590 10578 10566 10554 10541 10527 10513 10500 10489 10476 10460 10448 10438 10430 10425 10421 10416
10653 10654 10655 10655 10655 10655 10655 10655 10654 10654 10653 10652 10650 10648 10644 10642 10640 10636 10631 10626 10620 10614 10604 10594 10583 10574 10564 10552 10538 10524 10509 10493 10478 10464 10451 10439 10427 10417 10410 10404 10400 10397 10394